User: anonymous   Login
Location: Unspecified
(0.0000°N, 0.0000°E)
Time: 15:03:37
(UTC+00:00)
Language:

IGS OPTICAL 5 - Orbit

View from above orbital plane
View from above orbital plane
View from above satellite
View from above satellite

Ground track
Ground track

The orbit data is extracted from the following two-line orbital elements,

1 40538U 15015A   18141.95098027 0.00000000  00000-0  00000-0 0    00
2 40538  97.4880 217.0438 0003000 337.6765  22.3233 15.17616839    05
Epoch (UTC): 21 May 2018 22:49:24
Eccentricity: 0.0003000
inclination: 97.4880°
perigee height: 511 km
apogee height: 515 km
right ascension of ascending node: 217.0438°
argument of perigee: 337.6765°
revolutions per day: 15.17616839
mean anomaly at epoch: 22.3233°
orbit number at epoch: 0

The dashed part of the orbit path shows where the satellite is in the earth's shadow,  

DLR